| time (UTC) | temp F | wind direction | speed MPH | gust MPH | rain 1hr in | rain 24hr in | rain mn in | humidity % | barometer mb |
| 20260904163513 | 75 | 50 | 0.0 | 4.0 | 0.00 | 0.00 | 0.00 | 74 | 1016.0 |
| 20260904163100 | 75 | 54 | 0.0 | 4.0 | 0.00 | 0.00 | 0.00 | 73 | 1016.0 |
| 20260904162538 | 75 | 56 | 0.0 | 4.0 | 0.00 | 0.00 | 0.00 | 76 | 1016.0 |
| 20260904162017 | 74 | 56 | 0.0 | 5.0 | 0.00 | 0.00 | 0.00 | 75 | 1016.1 |
| 20260904161609 | 74 | 56 | 0.0 | 5.0 | 0.00 | 0.00 | 0.00 | 76 | 1016.1 |
| 20260904161042 | 74 | 326 | 0.0 | 5.0 | 0.00 | 0.00 | 0.00 | 76 | 1016.2 |
| 20260904160523 | 74 | 326 | 0.0 | 5.0 | 0.00 | 0.00 | 0.00 | 74 | 1016.1 |
| 20260904160109 | 74 | 325 | 1.0 | 5.0 | 0.00 | 0.00 | 0.00 | 76 | 1016.2 |
| 20260904155522 | 74 | 321 | 0.0 | 4.0 | 0.00 | 0.00 | 0.00 | 76 | 1016.1 |
| 20260904155001 | 74 | 323 | 0.0 | 4.0 | 0.00 | 0.00 | 0.00 | 78 | 1016.0 |
| 20260904154546 | 73 | 323 | 0.0 | 5.0 | 0.00 | 0.00 | 0.00 | 77 | 1015.9 |
| 20260904154026 | 73 | 323 | 1.0 | 5.0 | 0.00 | 0.00 | 0.00 | 78 | 1016.0 |
| 20260904153507 | 73 | 327 | 0.0 | 2.0 | 0.00 | 0.00 | 0.00 | 79 | 1015.9 |
| 20260904153105 | 73 | 327 | 0.0 | 5.0 | 0.00 | 0.00 | 0.00 | 78 | 1015.8 |
| 20260904152529 | 73 | 327 | 1.0 | 5.0 | 0.00 | 0.00 | 0.00 | 78 | 1015.7 |
| 20260904152009 | 73 | 327 | 0.0 | 2.0 | 0.00 | 0.00 | 0.00 | 77 | 1015.7 |
| 20260904151558 | 72 | 327 | 0.0 | 4.0 | 0.00 | 0.00 | 0.00 | 77 | 1015.8 |
| 20260904151033 | 72 | 327 | 0.0 | 4.0 | 0.00 | 0.00 | 0.00 | 77 | 1015.8 |
| 20260904150513 | 72 | 327 | 0.0 | 1.0 | 0.00 | 0.00 | 0.00 | 77 | 1015.8 |
| 20260904150057 | 72 | 327 | 0.0 | 2.0 | 0.00 | 0.00 | 0.00 | 77 | 1015.7 |
| 20260904145520 | 72 | 327 | 0.0 | 2.0 | 0.00 | 0.00 | 0.00 | 77 | 1015.7 |
| 20260904145104 | 72 | 327 | 0.0 | 2.0 | 0.00 | 0.00 | 0.00 | 77 | 1015.7 |
| 20260904144544 | 71 | 327 | 0.0 | 2.0 | 0.00 | 0.00 | 0.00 | 78 | 1015.7 |
| 20260904144023 | 71 | 327 | 0.0 | 5.0 | 0.00 | 0.00 | 0.00 | 79 | 1015.7 |
| 20260904143503 | 71 | 327 | 0.0 | 5.0 | 0.00 | 0.00 | 0.00 | 79 | 1015.6 |
| 20260904143047 | 71 | 329 | 0.0 | 3.0 | 0.00 | 0.00 | 0.00 | 81 | 1015.7 |
| 20260904142527 | 71 | 329 | 0.0 | 4.0 | 0.00 | 0.00 | 0.00 | 81 | 1015.6 |
| 20260904142009 | 70 | 329 | 0.0 | 5.0 | 0.00 | 0.00 | 0.00 | 82 | 1015.5 |
| 20260904141551 | 70 | 329 | 1.0 | 5.0 | 0.00 | 0.00 | 0.00 | 82 | 1015.4 |
| 20260904141033 | 70 | 52 | 0.0 | 5.0 | 0.00 | 0.00 | 0.00 | 82 | 1015.4 |
| 20260904140511 | 70 | 46 | 0.0 | 5.0 | 0.00 | 0.00 | 0.00 | 83 | 1015.5 |
| 20260904140058 | 70 | 54 | 1.0 | 5.0 | 0.00 | 0.00 | 0.00 | 83 | 1015.6 |
| 20260904135517 | 70 | 54 | 0.0 | 4.0 | 0.00 | 0.00 | 0.00 | 83 | 1015.5 |
| 20260904135103 | 70 | 56 | 0.0 | 1.0 | 0.00 | 0.00 | 0.00 | 83 | 1015.6 |
| 20260904134541 | 70 | 56 | 0.0 | 1.0 | 0.00 | 0.00 | 0.00 | 84 | 1015.6 |
| 20260904134021 | 70 | 56 | 0.0 | 0.0 | 0.00 | 0.00 | 0.00 | 84 | 1015.6 |
| 20260904133502 | 70 | 56 | 0.0 | 1.0 | 0.00 | 0.00 | 0.00 | 84 | 1015.7 |
| 20260904133045 | 69 | 56 | 0.0 | 1.0 | 0.00 | 0.00 | 0.00 | 85 | 1015.8 |
| 20260904132525 | 69 | 56 | 0.0 | 4.0 | 0.00 | 0.00 | 0.00 | 85 | 1015.8 |
| 20260904132006 | 69 | 56 | 1.0 | 4.0 | 0.00 | 0.00 | 0.00 | 85 | 1015.7 |
| 20260904131549 | 69 | 56 | 0.0 | 2.0 | 0.00 | 0.00 | 0.00 | 86 | 1015.7 |
| 20260904131029 | 69 | 56 | 0.0 | 2.0 | 0.00 | 0.00 | 0.00 | 86 | 1015.7 |
| 20260904130509 | 68 | 56 | 0.0 | 0.0 | 0.00 | 0.00 | 0.00 | 87 | 1015.7 |
| 20260904130053 | 68 | 56 | 0.0 | 0.0 | 0.00 | 0.00 | 0.00 | 87 | 1015.9 |
| 20260904125515 | 68 | 56 | 0.0 | 0.0 | 0.00 | 0.00 | 0.00 | 89 | 1015.7 |
| 20260904125100 | 68 | 56 | 0.0 | 0.0 | 0.00 | 0.00 | 0.00 | 89 | 1016.0 |
| 20260904124540 | 67 | 56 | 0.0 | 0.0 | 0.00 | 0.00 | 0.00 | 91 | 1015.7 |
| 20260904124019 | 67 | 56 | 0.0 | 1.0 | 0.00 | 0.00 | 0.00 | 91 | 1015.8 |
| 20260904123603 | 67 | 56 | 0.0 | 1.0 | 0.00 | 0.00 | 0.00 | 92 | 1015.7 |
| 20260904123043 | 67 | 56 | 0.0 | 0.0 | 0.00 | 0.00 | 0.00 | 93 | 1015.6 |
| 20260904122523 | 66 | 56 | 0.0 | 0.0 | 0.00 | 0.00 | 0.00 | 93 | 1015.8 |
| 20260904122003 | 66 | 56 | 0.0 | 0.0 | 0.00 | 0.00 | 0.00 | 94 | 1015.8 |
| 20260904121547 | 66 | 56 | 0.0 | 2.0 | 0.00 | 0.00 | 0.00 | 94 | 1015.8 |
| 20260904121027 | 65 | 56 | 0.0 | 2.0 | 0.00 | 0.00 | 0.00 | 95 | 1015.8 |
| 20260904120508 | 65 | 56 | 0.0 | 1.0 | 0.00 | 0.00 | 0.00 | 95 | 1015.7 |
| 20260904120106 | 65 | 56 | 0.0 | 2.0 | 0.00 | 0.00 | 0.00 | 95 | 1015.7 |
| 20260904115513 | 65 | 56 | 0.0 | 2.0 | 0.00 | 0.00 | 0.00 | 95 | 1015.7 |
| 20260904115057 | 64 | 56 | 0.0 | 0.0 | 0.00 | 0.00 | 0.00 | 95 | 1015.5 |
| 20260904114538 | 64 | 56 | 0.0 | 0.0 | 0.00 | 0.00 | 0.00 | 94 | 1015.6 |
| 20260904114018 | 64 | 56 | 0.0 | 0.0 | 0.00 | 0.00 | 0.00 | 94 | 1015.7 |
| 20260904113601 | 64 | 56 | 0.0 | 0.0 | 0.00 | 0.00 | 0.00 | 94 | 1015.6 |
| 20260904113041 | 64 | 56 | 0.0 | 0.0 | 0.00 | 0.00 | 0.00 | 93 | 1015.4 |
| 20260904112521 | 64 | 56 | 0.0 | 0.0 | 0.00 | 0.00 | 0.00 | 93 | 1015.3 |
| 20260904112001 | 64 | 56 | 0.0 | 0.0 | 0.00 | 0.00 | 0.00 | 93 | 1015.2 |
| 20260904111545 | 64 | 56 | 0.0 | 0.0 | 0.00 | 0.00 | 0.00 | 93 | 1015.1 |
| 20260904111025 | 64 | 56 | 0.0 | 0.0 | 0.00 | 0.00 | 0.00 | 93 | 1015.1 |
| 20260904110505 | 64 | 56 | 0.0 | 0.0 | 0.00 | 0.00 | 0.00 | 93 | 1015.0 |
| 20260904110049 | 64 | 56 | 0.0 | 0.0 | 0.00 | 0.00 | 0.00 | 93 | 1015.1 |
| 20260904105512 | 64 | 56 | 0.0 | 0.0 | 0.00 | 0.00 | 0.00 | 93 | 1015.0 |
| 20260904105055 | 64 | 56 | 0.0 | 0.0 | 0.00 | 0.00 | 0.00 | 93 | 1015.1 |
| 20260904104535 | 64 | 56 | 0.0 | 0.0 | 0.00 | 0.00 | 0.00 | 93 | 1015.0 |
| 20260904104019 | 64 | 56 | 0.0 | 0.0 | 0.00 | 0.00 | 0.00 | 93 | 1015.1 |
| 20260904103559 | 64 | 56 | 0.0 | 0.0 | 0.00 | 0.00 | 0.00 | 93 | 1015.1 |
| 20260904103039 | 65 | 56 | 0.0 | 0.0 | 0.00 | 0.00 | 0.00 | 93 | 1015.1 |
| 20260904102519 | 65 | 56 | 0.0 | 0.0 | 0.00 | 0.00 | 0.00 | 92 | 1015.0 |
| 20260904102103 | 65 | 56 | 0.0 | 0.0 | 0.00 | 0.00 | 0.00 | 92 | 1015.0 |
| 20260904101543 | 65 | 56 | 0.0 | 0.0 | 0.00 | 0.00 | 0.00 | 92 | 1015.0 |
| 20260904101025 | 65 | 56 | 0.0 | 0.0 | 0.00 | 0.00 | 0.00 | 92 | 1015.0 |
| 20260904100503 | 65 | 56 | 0.0 | 0.0 | 0.00 | 0.00 | 0.00 | 92 | 1015.0 |
| 20260904100047 | 65 | 56 | 0.0 | 0.0 | 0.00 | 0.00 | 0.00 | 92 | 1015.0 |
| 20260904095509 | 66 | 56 | 0.0 | 0.0 | 0.00 | 0.00 | 0.00 | 92 | 1015.0 |
| 20260904095057 | 66 | 56 | 0.0 | 0.0 | 0.00 | 0.00 | 0.00 | 92 | 1014.9 |
| 20260904094533 | 66 | 56 | 0.0 | 0.0 | 0.00 | 0.00 | 0.00 | 91 | 1015.0 |
| 20260904094014 | 66 | 56 | 0.0 | 0.0 | 0.00 | 0.00 | 0.00 | 91 | 1014.9 |
| 20260904093559 | 66 | 56 | 0.0 | 0.0 | 0.00 | 0.00 | 0.00 | 92 | 1014.9 |
| 20260904093054 | 66 | 56 | 0.0 | 0.0 | 0.00 | 0.00 | 0.00 | 92 | 1014.9 |
| 20260904092519 | 66 | 56 | 0.0 | 0.0 | 0.00 | 0.00 | 0.00 | 91 | 1014.7 |
| 20260904092101 | 67 | 56 | 0.0 | 0.0 | 0.00 | 0.00 | 0.00 | 91 | 1014.7 |
| 20260904091541 | 67 | 56 | 0.0 | 0.0 | 0.00 | 0.00 | 0.00 | 92 | 1014.8 |
| 20260904091021 | 67 | 56 | 0.0 | 0.0 | 0.00 | 0.00 | 0.00 | 92 | 1014.7 |
| 20260904090502 | 67 | 56 | 0.0 | 0.0 | 0.00 | 0.00 | 0.00 | 92 | 1014.7 |
| 20260904090045 | 67 | 56 | 0.0 | 0.0 | 0.00 | 0.00 | 0.00 | 92 | 1014.7 |
| 20260904085509 | 67 | 56 | 0.0 | 0.0 | 0.00 | 0.00 | 0.00 | 92 | 1014.9 |
| 20260904085052 | 67 | 56 | 0.0 | 0.0 | 0.00 | 0.00 | 0.00 | 92 | 1014.7 |
| 20260904084531 | 67 | 56 | 0.0 | 0.0 | 0.00 | 0.00 | 0.00 | 92 | 1014.7 |
| 20260904084010 | 67 | 56 | 0.0 | 0.0 | 0.00 | 0.00 | 0.00 | 92 | 1014.7 |
| 20260904083557 | 67 | 56 | 0.0 | 0.0 | 0.00 | 0.00 | 0.00 | 93 | 1014.8 |
| 20260904083037 | 67 | 56 | 0.0 | 0.0 | 0.00 | 0.00 | 0.00 | 93 | 1014.7 |
| 20260904082515 | 67 | 56 | 0.0 | 0.0 | 0.00 | 0.00 | 0.00 | 93 | 1014.7 |
| 20260904082059 | 67 | 56 | 0.0 | 0.0 | 0.00 | 0.00 | 0.00 | 93 | 1015.0 |
| 20260904081539 | 66 | 56 | 0.0 | 0.0 | 0.00 | 0.00 | 0.00 | 93 | 1014.8 |
| 20260904081022 | 66 | 56 | 0.0 | 0.0 | 0.00 | 0.00 | 0.00 | 93 | 1014.8 |
| 20260904080603 | 66 | 56 | 0.0 | 0.0 | 0.00 | 0.00 | 0.00 | 93 | 1014.7 |
| 20260904080043 | 66 | 56 | 0.0 | 0.0 | 0.00 | 0.00 | 0.00 | 93 | 1014.7 |
| 20260904075504 | 66 | 56 | 0.0 | 0.0 | 0.00 | 0.00 | 0.00 | 93 | 1014.6 |
| 20260904075048 | 66 | 56 | 0.0 | 0.0 | 0.00 | 0.00 | 0.00 | 93 | 1014.6 |
| 20260904074528 | 66 | 56 | 0.0 | 0.0 | 0.00 | 0.00 | 0.00 | 93 | 1014.6 |
| 20260904074009 | 66 | 56 | 0.0 | 0.0 | 0.00 | 0.00 | 0.00 | 93 | 1014.5 |
| 20260904073547 | 67 | 56 | 0.0 | 0.0 | 0.00 | 0.00 | 0.00 | 93 | 1014.6 |
| 20260904073047 | 67 | 56 | 0.0 | 0.0 | 0.00 | 0.00 | 0.00 | 93 | 1014.5 |
| 20260904072506 | 67 | 56 | 0.0 | 0.0 | 0.00 | 0.00 | 0.00 | 93 | 1014.4 |
| 20260904072051 | 67 | 56 | 0.0 | 0.0 | 0.00 | 0.00 | 0.00 | 93 | 1014.4 |
| 20260904071534 | 67 | 56 | 0.0 | 0.0 | 0.00 | 0.00 | 0.00 | 92 | 1014.4 |
| 20260904071011 | 67 | 56 | 0.0 | 0.0 | 0.00 | 0.00 | 0.00 | 92 | 1014.4 |
| 20260904070557 | 67 | 56 | 0.0 | 0.0 | 0.00 | 0.00 | 0.00 | 92 | 1014.4 |
| 20260904070035 | 67 | 56 | 0.0 | 0.0 | 0.00 | 0.00 | 0.00 | 92 | 1014.4 |
| 20260904065600 | 67 | 56 | 0.0 | 0.0 | 0.00 | 0.00 | 0.00 | 92 | 1014.3 |
| 20260904065040 | 67 | 56 | 0.0 | 0.0 | 0.00 | 0.00 | 0.00 | 92 | 1014.3 |
| 20260904064521 | 67 | 56 | 0.0 | 0.0 | 0.00 | 0.00 | 0.00 | 92 | 1014.4 |
| 20260904064002 | 67 | 56 | 0.0 | 0.0 | 0.00 | 0.00 | 0.00 | 92 | 1014.4 |
| 20260904063545 | 67 | 56 | 0.0 | 0.0 | 0.00 | 0.00 | 0.00 | 92 | 1014.4 |
| 20260904063025 | 67 | 56 | 0.0 | 0.0 | 0.00 | 0.00 | 0.00 | 92 | 1014.4 |
| 20260904062504 | 67 | 56 | 0.0 | 0.0 | 0.00 | 0.00 | 0.00 | 92 | 1014.4 |
| 20260904062048 | 67 | 56 | 0.0 | 0.0 | 0.00 | 0.00 | 0.00 | 91 | 1014.4 |
| 20260904061529 | 67 | 56 | 0.0 | 0.0 | 0.00 | 0.00 | 0.00 | 91 | 1014.4 |
| 20260904061009 | 67 | 56 | 0.0 | 0.0 | 0.00 | 0.00 | 0.00 | 91 | 1014.4 |
| 20260904060552 | 67 | 56 | 0.0 | 0.0 | 0.00 | 0.00 | 0.00 | 91 | 1014.4 |
| 20260904060033 | 67 | 56 | 0.0 | 0.0 | 0.00 | 0.00 | 0.00 | 90 | 1014.4 |
| 20260904055558 | 67 | 56 | 0.0 | 0.0 | 0.00 | 0.00 | 0.00 | 91 | 1014.4 |
| 20260904055038 | 68 | 56 | 0.0 | 0.0 | 0.00 | 0.00 | 0.00 | 91 | 1014.4 |
| 20260904054518 | 68 | 56 | 0.0 | 0.0 | 0.00 | 0.00 | 0.00 | 90 | 1014.2 |
| 20260904054103 | 68 | 56 | 0.0 | 0.0 | 0.00 | 0.00 | 0.00 | 90 | 1014.4 |
| 20260904053541 | 68 | 56 | 0.0 | 0.0 | 0.00 | 0.00 | 0.00 | 90 | 1014.5 |
| 20260904053022 | 68 | 56 | 0.0 | 0.0 | 0.00 | 0.00 | 0.00 | 90 | 1014.5 |
| 20260904052502 | 68 | 56 | 0.0 | 0.0 | 0.00 | 0.00 | 0.00 | 90 | 1014.5 |
| 20260904052050 | 68 | 56 | 0.0 | 0.0 | 0.00 | 0.00 | 0.00 | 90 | 1014.5 |
| 20260904051527 | 68 | 56 | 0.0 | 0.0 | 0.00 | 0.00 | 0.00 | 90 | 1014.6 |
| 20260904051005 | 68 | 56 | 0.0 | 0.0 | 0.00 | 0.00 | 0.00 | 90 | 1014.6 |
| 20260904050549 | 68 | 56 | 0.0 | 0.0 | 0.00 | 0.00 | 0.00 | 90 | 1014.6 |
| 20260904050012 | 68 | 56 | 0.0 | 0.0 | 0.00 | 0.00 | 0.00 | 90 | 1014.7 |
| 20260904045600 | 68 | 56 | 0.0 | 0.0 | 0.00 | 0.00 | 0.00 | 90 | 1014.7 |
| 20260904045036 | 68 | 56 | 0.0 | 0.0 | 0.00 | 0.00 | 0.00 | 90 | 1014.8 |
| 20260904044516 | 68 | 56 | 0.0 | 0.0 | 0.00 | 0.00 | 0.00 | 89 | 1014.8 |
| 20260904044059 | 68 | 56 | 0.0 | 0.0 | 0.00 | 0.00 | 0.00 | 89 | 1014.8 |
| 20260904043539 | 68 | 56 | 0.0 | 0.0 | 0.00 | 0.00 | 0.00 | 89 | 1014.7 |
| 20260904043020 | 68 | 56 | 0.0 | 0.0 | 0.00 | 0.00 | 0.00 | 89 | 1014.7 |
| 20260904042604 | 68 | 56 | 0.0 | 0.0 | 0.00 | 0.00 | 0.00 | 89 | 1014.7 |
| 20260904042044 | 68 | 56 | 0.0 | 0.0 | 0.00 | 0.00 | 0.00 | 89 | 1014.7 |
| 20260904041523 | 68 | 56 | 0.0 | 0.0 | 0.00 | 0.00 | 0.00 | 89 | 1014.8 |
| 20260904041000 | 68 | 56 | 0.0 | 0.0 | 0.00 | 0.00 | 0.00 | 89 | 1014.8 |
| 20260904040544 | 68 | 56 | 0.0 | 0.0 | 0.00 | 0.00 | 0.00 | 89 | 1014.8 |
| 20260904040007 | 68 | 56 | 0.0 | 0.0 | 0.00 | 0.00 | 0.00 | 89 | 1014.9 |
| 20260904035551 | 68 | 56 | 0.0 | 0.0 | 0.00 | 0.00 | 0.00 | 88 | 1014.7 |
| 20260904035031 | 68 | 56 | 0.0 | 0.0 | 0.00 | 0.00 | 0.00 | 88 | 1014.6 |
| 20260904034510 | 68 | 56 | 0.0 | 0.0 | 0.00 | 0.00 | 0.00 | 88 | 1014.5 |
| 20260904034055 | 68 | 56 | 0.0 | 0.0 | 0.00 | 0.00 | 0.00 | 87 | 1014.4 |
| 20260904033535 | 68 | 56 | 0.0 | 0.0 | 0.00 | 0.00 | 0.00 | 87 | 1014.4 |
| 20260904033016 | 68 | 56 | 0.0 | 0.0 | 0.00 | 0.00 | 0.00 | 87 | 1014.2 |
| 20260904032559 | 68 | 56 | 0.0 | 0.0 | 0.00 | 0.00 | 0.00 | 87 | 1014.2 |
| 20260904032035 | 68 | 56 | 0.0 | 0.0 | 0.00 | 0.00 | 0.00 | 87 | 1014.1 |
| 20260904031515 | 68 | 56 | 0.0 | 0.0 | 0.00 | 0.00 | 0.00 | 86 | 1014.1 |
| 20260904031059 | 69 | 56 | 0.0 | 0.0 | 0.00 | 0.00 | 0.00 | 86 | 1014.0 |
| 20260904030539 | 69 | 56 | 0.0 | 0.0 | 0.00 | 0.00 | 0.00 | 85 | 1014.0 |
| 20260904030002 | 69 | 56 | 0.0 | 0.0 | 0.00 | 0.00 | 0.00 | 85 | 1013.9 |
| 20260904025546 | 69 | 56 | 0.0 | 0.0 | 0.00 | 0.00 | 0.00 | 85 | 1014.0 |
| 20260904025026 | 69 | 56 | 0.0 | 0.0 | 0.00 | 0.00 | 0.00 | 85 | 1013.9 |
| 20260904024506 | 69 | 56 | 0.0 | 0.0 | 0.00 | 0.00 | 0.00 | 84 | 1013.8 |
| 20260904024050 | 69 | 56 | 0.0 | 0.0 | 0.00 | 0.00 | 0.00 | 84 | 1013.7 |
| 20260904023533 | 70 | 56 | 0.0 | 0.0 | 0.00 | 0.00 | 0.00 | 83 | 1013.9 |
| 20260904023009 | 70 | 56 | 0.0 | 0.0 | 0.00 | 0.00 | 0.00 | 83 | 1014.0 |
| 20260904022553 | 70 | 56 | 0.0 | 0.0 | 0.00 | 0.00 | 0.00 | 83 | 1013.9 |
| 20260904022034 | 70 | 56 | 0.0 | 0.0 | 0.00 | 0.00 | 0.00 | 83 | 1014.0 |
| 20260904021513 | 70 | 56 | 0.0 | 0.0 | 0.00 | 0.00 | 0.00 | 83 | 1014.1 |
| 20260904021057 | 71 | 56 | 0.0 | 0.0 | 0.00 | 0.01 | 0.00 | 83 | 1014.1 |
| 20260904020537 | 71 | 56 | 0.0 | 0.0 | 0.00 | 0.01 | 0.00 | 82 | 1014.1 |
| 20260904020136 | 71 | 56 | 0.0 | 0.0 | 0.00 | 0.01 | 0.00 | 82 | 1014.1 |
| 20260904015543 | 71 | 56 | 0.0 | 0.0 | 0.00 | 0.01 | 0.00 | 81 | 1014.3 |
| 20260904015023 | 71 | 56 | 0.0 | 0.0 | 0.00 | 0.01 | 0.00 | 80 | 1014.2 |
| 20260904014503 | 72 | 56 | 0.0 | 0.0 | 0.00 | 0.01 | 0.00 | 81 | 1014.3 |
| 20260904014048 | 72 | 56 | 0.0 | 0.0 | 0.00 | 0.01 | 0.00 | 80 | 1014.2 |
| 20260904013530 | 72 | 56 | 0.0 | 0.0 | 0.00 | 0.01 | 0.00 | 80 | 1014.1 |
| 20260904013015 | 72 | 56 | 0.0 | 0.0 | 0.00 | 0.01 | 0.00 | 80 | 1013.9 |
| 20260904012551 | 72 | 56 | 0.0 | 0.0 | 0.00 | 0.01 | 0.00 | 79 | 1013.7 |
| 20260904012034 | 72 | 56 | 0.0 | 0.0 | 0.00 | 0.01 | 0.00 | 79 | 1013.5 |
| 20260904011514 | 73 | 56 | 0.0 | 0.0 | 0.00 | 0.01 | 0.00 | 79 | 1013.4 |
| 20260904011055 | 73 | 56 | 0.0 | 0.0 | 0.00 | 0.05 | 0.00 | 79 | 1013.5 |
| 20260904010535 | 73 | 56 | 0.0 | 0.0 | 0.00 | 0.05 | 0.00 | 79 | 1013.2 |
| 20260904010120 | 73 | 56 | 0.0 | 0.0 | 0.00 | 0.05 | 0.00 | 79 | 1013.2 |
| 20260904005542 | 73 | 56 | 0.0 | 0.0 | 0.00 | 0.05 | 0.00 | 79 | 1013.1 |
| 20260904005021 | 74 | 56 | 0.0 | 0.0 | 0.00 | 0.05 | 0.00 | 79 | 1013.0 |
| 20260904004501 | 74 | 56 | 0.0 | 2.0 | 0.00 | 0.05 | 0.00 | 79 | 1012.7 |
| 20260904004045 | 74 | 56 | 0.0 | 4.0 | 0.00 | 0.05 | 0.00 | 79 | 1012.6 |
| 20260904003527 | 74 | 55 | 0.0 | 4.0 | 0.00 | 0.05 | 0.00 | 79 | 1012.8 |
| 20260904003004 | 75 | 54 | 0.0 | 4.0 | 0.00 | 0.05 | 0.00 | 79 | 1013.0 |
| 20260904002546 | 75 | 54 | 0.0 | 2.0 | 0.00 | 0.05 | 0.00 | 80 | 1013.0 |
| 20260904002027 | 75 | 55 | 0.0 | 6.0 | 0.00 | 0.05 | 0.00 | 80 | 1013.0 |
| 20260904001506 | 75 | 42 | 1.0 | 6.0 | 0.00 | 0.05 | 0.00 | 80 | 1013.2 |
| 20260904001050 | 76 | 33 | 0.0 | 6.0 | 0.00 | 0.17 | 0.00 | 81 | 1013.0 |
| 20260904000530 | 76 | 45 | 0.0 | 7.0 | 0.00 | 0.17 | 0.00 | 82 | 1013.0 |
| 20260904000114 | 76 | 44 | 3.0 | 7.0 | 0.00 | 0.17 | 0.00 | 82 | 1013.0 |
| 20260903235537 | 77 | 58 | 0.0 | 6.0 | 0.00 | 0.17 | 0.00 | 81 | 1013.1 |
| 20260903235016 | 77 | 59 | 1.0 | 6.0 | 0.00 | 0.17 | 0.00 | 81 | 1013.1 |
| 20260903234613 | 77 | 321 | 1.0 | 6.0 | 0.00 | 0.17 | 0.00 | 81 | 1013.1 |
| 20260903234042 | 78 | 282 | 0.0 | 4.0 | 0.00 | 0.17 | 0.00 | 81 | 1013.0 |
| 20260903233524 | 78 | 306 | 0.0 | 0.0 | 0.00 | 0.17 | 0.00 | 82 | 1012.6 |
| 20260903233105 | 78 | 306 | 0.0 | 0.0 | 0.00 | 0.17 | 0.00 | 82 | 1012.6 |
| 20260903232544 | 78 | 306 | 0.0 | 0.0 | 0.00 | 0.17 | 0.00 | 82 | 1012.6 |
| 20260903232024 | 78 | 306 | 0.0 | 0.0 | 0.00 | 0.17 | 0.00 | 82 | 1012.2 |
| 20260903231504 | 78 | 306 | 0.0 | 0.0 | 0.00 | 0.17 | 0.00 | 82 | 1012.3 |
| 20260903231049 | 79 | 306 | 0.0 | 0.0 | 0.00 | 0.40 | 0.00 | 82 | 1012.6 |
| 20260903230528 | 79 | 306 | 0.0 | 0.0 | 0.00 | 0.40 | 0.00 | 82 | 1012.5 |
| 20260903230112 | 79 | 306 | 0.0 | 0.0 | 0.00 | 0.40 | 0.00 | 81 | 1012.5 |
| 20260903225534 | 79 | 306 | 0.0 | 0.0 | 0.00 | 0.40 | 0.00 | 81 | 1012.4 |
| 20260903225015 | 79 | 306 | 0.0 | 0.0 | 0.00 | 0.40 | 0.00 | 81 | 1012.3 |
| 20260903224559 | 79 | 306 | 0.0 | 0.0 | 0.00 | 0.40 | 0.00 | 81 | 1012.4 |
| 20260903224039 | 79 | 306 | 0.0 | 0.0 | 0.00 | 0.40 | 0.00 | 81 | 1012.3 |
| 20260903223518 | 80 | 306 | 0.0 | 0.0 | 0.00 | 0.40 | 0.00 | 81 | 1012.4 |
| 20260903223102 | 80 | 306 | 0.0 | 0.0 | 0.00 | 0.40 | 0.00 | 80 | 1012.3 |
| 20260903222542 | 80 | 306 | 0.0 | 0.0 | 0.00 | 0.40 | 0.00 | 80 | 1012.4 |
| 20260903222022 | 80 | 306 | 0.0 | 0.0 | 0.00 | 0.40 | 0.00 | 80 | 1012.5 |
| 20260903221502 | 80 | 305 | 0.0 | 0.0 | 0.00 | 0.40 | 0.00 | 80 | 1012.4 |
| 20260903221046 | 80 | 305 | 0.0 | 0.0 | 0.00 | 0.40 | 0.00 | 80 | 1012.3 |
| 20260903220527 | 81 | 306 | 0.0 | 0.0 | 0.00 | 0.40 | 0.00 | 79 | 1012.3 |
| 20260903220111 | 81 | 306 | 0.0 | 0.0 | 0.00 | 0.40 | 0.00 | 78 | 1012.2 |
| 20260903215532 | 81 | 306 | 0.0 | 0.0 | 0.00 | 0.40 | 0.00 | 79 | 1012.3 |
| 20260903215013 | 81 | 306 | 0.0 | 0.0 | 0.00 | 0.40 | 0.00 | 78 | 1012.2 |
| 20260903214556 | 81 | 305 | 0.0 | 1.0 | 0.00 | 0.40 | 0.00 | 78 | 1012.1 |
| 20260903214037 | 81 | 306 | 0.0 | 1.0 | 0.00 | 0.40 | 0.00 | 78 | 1012.1 |
| 20260903213519 | 81 | 307 | 0.0 | 0.0 | 0.00 | 0.40 | 0.00 | 78 | 1012.0 |
| 20260903213101 | 81 | 307 | 0.0 | 0.0 | 0.00 | 0.40 | 0.00 | 78 | 1011.8 |
| 20260903212540 | 81 | 307 | 0.0 | 0.0 | 0.00 | 0.40 | 0.00 | 78 | 1012.0 |
| 20260903212023 | 81 | 307 | 0.0 | 1.0 | 0.00 | 0.40 | 0.00 | 78 | 1012.2 |
| 20260903211604 | 81 | 308 | 0.0 | 2.0 | 0.00 | 0.40 | 0.00 | 78 | 1012.1 |
| 20260903211044 | 81 | 308 | 0.0 | 4.0 | 0.00 | 0.40 | 0.00 | 78 | 1012.1 |
| 20260903210524 | 81 | 310 | 0.0 | 4.0 | 0.00 | 0.40 | 0.00 | 78 | 1012.1 |
| 20260903210109 | 81 | 310 | 0.0 | 1.0 | 0.00 | 0.40 | 0.00 | 78 | 1012.2 |
| 20260903205530 | 82 | 310 | 0.0 | 0.0 | 0.00 | 0.40 | 0.00 | 79 | 1012.3 |
| 20260903205010 | 82 | 310 | 0.0 | 0.0 | 0.00 | 0.40 | 0.00 | 79 | 1012.4 |
| 20260903204556 | 82 | 310 | 0.0 | 0.0 | 0.00 | 0.40 | 0.00 | 79 | 1012.4 |
| 20260903204035 | 82 | 310 | 0.0 | 0.0 | 0.00 | 0.40 | 0.00 | 78 | 1012.4 |
| 20260903203518 | 82 | 310 | 0.0 | 1.0 | 0.00 | 0.40 | 0.00 | 78 | 1012.3 |
| 20260903203058 | 82 | 310 | 0.0 | 1.0 | 0.00 | 0.40 | 0.00 | 78 | 1012.5 |
| 20260903202538 | 82 | 310 | 0.0 | 0.0 | 0.00 | 0.40 | 0.00 | 79 | 1012.4 |
| 20260903202019 | 82 | 310 | 0.0 | 0.0 | 0.00 | 0.40 | 0.00 | 78 | 1012.5 |
| 20260903201602 | 82 | 311 | 0.0 | 0.0 | 0.00 | 0.40 | 0.00 | 79 | 1012.6 |
| 20260903201042 | 82 | 310 | 0.0 | 1.0 | 0.00 | 0.40 | 0.00 | 79 | 1012.6 |
| 20260903200522 | 82 | 310 | 0.0 | 1.0 | 0.00 | 0.40 | 0.00 | 79 | 1012.7 |
| 20260903200106 | 82 | 311 | 0.0 | 0.0 | 0.00 | 0.40 | 0.00 | 79 | 1012.7 |
| 20260903195527 | 82 | 311 | 0.0 | 0.0 | 0.00 | 0.40 | 0.00 | 79 | 1012.7 |
| 20260903195009 | 82 | 311 | 0.0 | 2.0 | 0.00 | 0.40 | 0.00 | 79 | 1012.8 |
| 20260903194552 | 82 | 311 | 0.0 | 4.0 | 0.00 | 0.40 | 0.00 | 79 | 1012.7 |
| 20260903194032 | 82 | 311 | 0.0 | 4.0 | 0.00 | 0.40 | 0.00 | 79 | 1012.8 |
| 20260903193516 | 82 | 311 | 0.0 | 1.0 | 0.00 | 0.40 | 0.00 | 79 | 1012.7 |
| 20260903193106 | 82 | 311 | 0.0 | 2.0 | 0.00 | 0.40 | 0.00 | 79 | 1012.7 |
| 20260903192536 | 82 | 311 | 0.0 | 2.0 | 0.00 | 0.40 | 0.00 | 79 | 1012.7 |
| 20260903192017 | 82 | 311 | 0.0 | 1.0 | 0.00 | 0.40 | 0.00 | 79 | 1012.8 |
| 20260903191606 | 82 | 331 | 0.0 | 1.0 | 0.00 | 0.40 | 0.00 | 79 | 1012.8 |
| 20260903191040 | 82 | 331 | 0.0 | 4.0 | 0.00 | 0.40 | 0.00 | 79 | 1012.8 |
| 20260903190520 | 82 | 331 | 0.0 | 4.0 | 0.00 | 0.40 | 0.00 | 79 | 1012.9 |
| 20260903190105 | 82 | 334 | 0.0 | 4.0 | 0.00 | 0.40 | 0.00 | 79 | 1013.0 |
| 20260903185526 | 82 | 334 | 0.0 | 4.0 | 0.00 | 0.40 | 0.00 | 78 | 1013.0 |
| 20260903185006 | 82 | 270 | 0.0 | 5.0 | 0.00 | 0.40 | 0.00 | 78 | 1012.9 |
| 20260903184550 | 82 | 267 | 0.0 | 0.0 | 0.00 | 0.40 | 0.00 | 77 | 1012.9 |
| 20260903184026 | 83 | 267 | 0.0 | 1.0 | 0.00 | 0.40 | 0.00 | 76 | 1012.9 |
| 20260903183506 | 83 | 267 | 0.0 | 4.0 | 0.00 | 0.40 | 0.00 | 76 | 1012.8 |
| 20260903183051 | 83 | 267 | 0.0 | 4.0 | 0.00 | 0.40 | 0.00 | 76 | 1012.9 |
| 20260903182531 | 83 | 267 | 0.0 | 4.0 | 0.00 | 0.40 | 0.00 | 75 | 1012.9 |
| 20260903182011 | 83 | 267 | 0.0 | 4.0 | 0.00 | 0.40 | 0.00 | 75 | 1012.9 |
| 20260903181604 | 83 | 247 | 0.0 | 4.0 | 0.00 | 0.40 | 0.00 | 74 | 1012.9 |
| 20260903181036 | 84 | 247 | 0.0 | 5.0 | 0.00 | 0.40 | 0.00 | 72 | 1013.1 |
| 20260903180515 | 84 | 246 | 1.0 | 5.0 | 0.00 | 0.40 | 0.00 | 71 | 1012.9 |
| 20260903180107 | 84 | 293 | 0.0 | 4.0 | 0.00 | 0.40 | 0.00 | 73 | 1012.9 |
| 20260903175523 | 84 | 295 | 0.0 | 5.0 | 0.00 | 0.40 | 0.00 | 72 | 1013.0 |
| 20260903175001 | 83 | 241 | 2.0 | 6.0 | 0.00 | 0.40 | 0.00 | 73 | 1013.2 |
| 20260903174545 | 83 | 216 | 0.0 | 6.0 | 0.00 | 0.40 | 0.00 | 75 | 1013.2 |
| 20260903174027 | 83 | 245 | 1.0 | 5.0 | 0.00 | 0.40 | 0.00 | 75 | 1013.2 |
| 20260903173505 | 82 | 227 | 1.0 | 6.0 | 0.00 | 0.40 | 0.00 | 76 | 1013.3 |
| 20260903173057 | 82 | 225 | 1.0 | 6.0 | 0.00 | 0.40 | 0.00 | 77 | 1013.3 |
| 20260903172529 | 82 | 219 | 0.0 | 6.0 | 0.00 | 0.40 | 0.00 | 78 | 1013.2 |
| 20260903172009 | 81 | 252 | 0.0 | 2.0 | 0.00 | 0.40 | 0.00 | 79 | 1013.2 |
| 20260903171553 | 81 | 252 | 0.0 | 4.0 | 0.00 | 0.40 | 0.00 | 78 | 1013.3 |
| 20260903171033 | 81 | 252 | 1.0 | 5.0 | 0.00 | 0.40 | 0.00 | 78 | 1013.3 |
| 20260903170513 | 81 | 252 | 1.0 | 5.0 | 0.00 | 0.40 | 0.00 | 78 | 1013.3 |
| 20260903170206 | 81 | 260 | 0.0 | 4.0 | 0.00 | 0.40 | 0.00 | 79 | 1013.3 |
| 20260903165518 | 81 | 260 | 1.0 | 5.0 | 0.00 | 0.40 | 0.00 | 77 | 1013.3 |
| 20260903165103 | 81 | 250 | 1.0 | 5.0 | 0.00 | 0.40 | 0.00 | 78 | 1013.4 |
| 20260903164549 | 80 | 252 | 0.0 | 5.0 | 0.00 | 0.40 | 0.00 | 80 | 1013.4 |
| 20260903164026 | 80 | 252 | 0.0 | 6.0 | 0.00 | 0.40 | 0.00 | 80 | 1013.3 |